THORAD AGENA D DEB, 4651

Orbit data source: Space-Track

THORAD AGENA D DEB, 4651 is space debris in SSO originally from a launch on Wed, 08 Apr 1970 UTC launched from the Air Force Western Test Range (AFWTR). Debris objects in space refer to the collection of defunct objects orbiting the Earth. Examples of debris include non-operational satellites, rocket bodies, and fragments generated from explosions, collisions, or faulty payload assembly.

Loading next visibility...
Identifier
4651, 1970-025AK
Orbit
SSO
Country
Flag of USUS
Related business
Manufacturer
Unknown
Mission
Spacecraft
Bus & Motor
Unknown
Mass
Unknown
Launch date (UTC)
1970-04-08 (56 years ago)
Launch vehicle
Unknown
Launch site
Air Force Western Test Range (AFWTR)
Object type
Payload
Rocket body
Debris
Shape & HBR
Unknown shape, 0.2 m
Radar Cross Section
Medium (>0.1 m² and <1 m²)

Expand to show TLE details & history
Last TLE update: 1 day ago

TLE from 1 day ago
0 THORAD AGENA D DEB
1 04651U 70025AK  26191.36530800  .00000874  00000-0  59105-3 0  9996
2 04651 100.1480 147.6673 0044066  25.1916 335.1382 14.03105350838972
Epoch: 2026-07-10T08:46Z
TLE epoch observation values (Epoch: 2026-07-10T08:46:02.611Z)
Latitude
-0.00008°
Longitude
87.86251°
Altitude
856.891 km
Speed
7.439 km/s
True Right ascension
09h 50m 40s
True Declination
0° 00' 00"
Sunlit
Object was in daylight at epoch
Visualization orbit readout
Latitude
Unknown
Longitude
Unknown
Altitude
Unknown
Speed
Unknown
Apparent Right ascension
Unknown
Apparent Declination
Unknown
Sunlit
N/A
Visualization observer readout
Local Sidereal Time
03:07:18
Azimuth
Unknown
Elevation
Unknown
Doppler factor
Unknown
Orbital elements
Apogee altitude
912.302 km
Perigee altitude
848.332 km
Semi-major axis
7,258.454 km
Eccentricity
0.00441
Inclination
100.148°
RAAN
147.6673°
Arg. of periapsis
25.1916°
True anomaly
334.92483°
Mean anomaly
335.1382°
Eccentric anomaly
335.03162°
Mean motion
3.50976 °/min
Orbital period
102.57 mins
BSTAR
0.00059105

Documentation

Showing up to 5 results
|